Time,TemperatureF,DewpointF,PressureIn,WindDirection,WindDirectionDegrees,WindSpeedMPH,WindSpeedGustMPH,Humidity,HourlyPrecipIn,Conditions,Clouds,dailyrainin,SoftwareType,DateUTC
2013-04-30 00:01:00,55.4,39.0,29.92,WSW,248,0.0,0.0,54,0.00,,,0.00,WUHU216HW,2013-04-30 04:01:00,
2013-04-30 00:02:00,55.4,39.0,29.92,WSW,248,0.0,0.0,54,0.00,,,0.00,WUHU216HW,2013-04-30 04:02:00,
2013-04-30 00:03:00,55.3,38.8,29.92,WSW,248,0.0,0.0,54,0.00,,,0.00,WUHU216HW,2013-04-30 04:03:00,
2013-04-30 00:08:00,55.3,38.8,29.92,WSW,248,0.0,0.0,54,0.00,,,0.00,WUHU216HW,2013-04-30 04:08:00,
2013-04-30 00:13:00,55.1,38.6,29.92,WSW,248,0.0,0.0,54,0.00,,,0.00,WUHU216HW,2013-04-30 04:13:00,
2013-04-30 00:18:00,55.1,38.6,29.92,WSW,248,0.0,0.0,54,0.00,,,0.00,WUHU216HW,2013-04-30 04:18:00,
2013-04-30 00:23:00,55.1,39.1,29.92,WSW,248,0.0,0.0,55,0.00,,,0.00,WUHU216HW,2013-04-30 04:23:00,
2013-04-30 00:28:00,54.9,39.0,29.92,WSW,248,0.0,0.0,55,0.00,,,0.00,WUHU216HW,2013-04-30 04:28:00,
2013-04-30 00:33:00,54.9,38.4,29.92,WSW,248,0.0,0.0,54,0.00,,,0.00,WUHU216HW,2013-04-30 04:33:00,
2013-04-30 00:38:00,54.7,38.8,29.92,WSW,248,0.0,0.0,55,0.00,,,0.00,WUHU216HW,2013-04-30 04:38:00,
2013-04-30 00:43:00,54.7,38.8,29.92,WSW,248,0.0,0.0,55,0.00,,,0.00,WUHU216HW,2013-04-30 04:43:00,
2013-04-30 00:48:00,54.7,39.2,29.93,WSW,248,0.0,0.0,56,0.00,,,0.00,WUHU216HW,2013-04-30 04:48:00,
2013-04-30 00:53:00,54.7,39.7,29.93,WSW,248,0.0,0.0,57,0.00,,,0.00,WUHU216HW,2013-04-30 04:53:00,
2013-04-30 00:58:00,54.5,39.5,29.93,WSW,248,0.0,0.0,57,0.00,,,0.00,WUHU216HW,2013-04-30 04:58:00,
2013-04-30 01:03:00,54.5,40.1,29.93,WSW,248,0.0,0.0,58,0.00,,,0.00,WUHU216HW,2013-04-30 05:03:00,
2013-04-30 01:08:00,54.4,39.9,29.93,WSW,248,0.0,0.0,58,0.00,,,0.00,WUHU216HW,2013-04-30 05:08:00,
2013-04-30 01:13:00,54.4,39.9,29.92,WSW,248,0.0,0.0,58,0.00,,,0.00,WUHU216HW,2013-04-30 05:13:00,
2013-04-30 01:18:00,54.4,39.9,29.92,WSW,248,0.0,0.0,58,0.00,,,0.00,WUHU216HW,2013-04-30 05:18:00,
2013-04-30 01:23:00,54.2,39.7,29.92,WSW,248,0.0,0.0,58,0.00,,,0.00,WUHU216HW,2013-04-30 05:23:00,
2013-04-30 01:28:00,54.2,39.7,29.92,WSW,248,0.0,0.0,58,0.00,,,0.00,WUHU216HW,2013-04-30 05:28:00,
2013-04-30 01:34:00,54.0,40.0,29.93,WSW,248,0.0,0.0,59,0.00,,,0.00,WUHU216HW,2013-04-30 05:34:00,
2013-04-30 01:39:00,54.0,40.0,29.92,WSW,248,0.0,0.0,59,0.00,,,0.00,WUHU216HW,2013-04-30 05:39:00,
2013-04-30 01:44:00,54.0,40.0,29.92,WSW,248,0.0,0.0,59,0.00,,,0.00,WUHU216HW,2013-04-30 05:44:00,
2013-04-30 01:49:00,53.8,40.3,29.92,WSW,248,0.0,0.0,60,0.00,,,0.00,WUHU216HW,2013-04-30 05:49:00,
2013-04-30 01:54:00,53.8,40.3,29.92,WSW,248,0.0,0.0,60,0.00,,,0.00,WUHU216HW,2013-04-30 05:54:00,
2013-04-30 01:59:00,53.6,40.1,29.92,WSW,248,0.0,0.0,60,0.00,,,0.00,WUHU216HW,2013-04-30 05:59:00,
2013-04-30 02:04:00,53.6,40.1,29.92,WSW,248,0.0,0.0,60,0.00,,,0.00,WUHU216HW,2013-04-30 06:04:00,
2013-04-30 02:09:00,53.6,40.1,29.92,WSW,248,0.0,0.0,60,0.00,,,0.00,WUHU216HW,2013-04-30 06:09:00,
2013-04-30 02:14:00,53.5,40.0,29.93,WSW,248,0.0,0.0,60,0.00,,,0.00,WUHU216HW,2013-04-30 06:14:00,
2013-04-30 02:19:00,53.5,40.0,29.93,WSW,248,0.0,0.0,60,0.00,,,0.00,WUHU216HW,2013-04-30 06:19:00,
2013-04-30 02:24:00,53.3,39.8,29.93,WSW,248,0.0,0.0,60,0.00,,,0.00,WUHU216HW,2013-04-30 06:24:00,
2013-04-30 02:29:00,53.3,39.8,29.92,WSW,248,0.0,0.0,60,0.00,,,0.00,WUHU216HW,2013-04-30 06:29:00,
2013-04-30 02:34:00,53.1,40.0,29.92,WSW,248,0.0,0.0,61,0.00,,,0.00,WUHU216HW,2013-04-30 06:34:00,
2013-04-30 02:40:00,53.1,40.0,29.92,WSW,248,0.0,0.0,61,0.00,,,0.00,WUHU216HW,2013-04-30 06:40:00,
2013-04-30 02:45:00,52.9,39.8,29.92,WSW,248,0.0,0.0,61,0.00,,,0.00,WUHU216HW,2013-04-30 06:45:00,
2013-04-30 02:50:00,52.9,39.8,29.92,WSW,248,0.0,0.0,61,0.00,,,0.00,WUHU216HW,2013-04-30 06:50:00,
2013-04-30 02:55:00,52.9,39.8,29.93,WSW,248,0.0,0.0,61,0.00,,,0.00,WUHU216HW,2013-04-30 06:55:00,
2013-04-30 03:00:00,52.7,39.6,29.93,WSW,248,0.0,0.0,61,0.00,,,0.00,WUHU216HW,2013-04-30 07:00:00,
2013-04-30 03:05:00,52.7,39.6,29.92,WSW,248,0.0,0.0,61,0.00,,,0.00,WUHU216HW,2013-04-30 07:05:00,
2013-04-30 03:10:00,52.6,39.9,29.92,WSW,248,0.0,0.0,62,0.00,,,0.00,WUHU216HW,2013-04-30 07:10:00,
2013-04-30 03:15:00,52.6,40.3,29.92,WSW,248,0.0,0.0,63,0.00,,,0.00,WUHU216HW,2013-04-30 07:15:00,
2013-04-30 03:20:00,52.6,40.3,29.92,WSW,248,0.0,0.0,63,0.00,,,0.00,WUHU216HW,2013-04-30 07:20:00,
2013-04-30 03:25:00,52.4,39.7,29.93,WSW,248,0.0,0.0,62,0.00,,,0.00,WUHU216HW,2013-04-30 07:25:00,
2013-04-30 03:30:00,52.4,39.7,29.93,WSW,248,0.0,0.0,62,0.00,,,0.00,WUHU216HW,2013-04-30 07:30:00,
2013-04-30 03:35:00,52.2,40.0,29.93,WSW,248,0.0,0.0,63,0.00,,,0.00,WUHU216HW,2013-04-30 07:35:00,
2013-04-30 03:40:00,52.2,40.0,29.93,WSW,248,0.0,0.0,63,0.00,,,0.00,WUHU216HW,2013-04-30 07:40:00,
2013-04-30 03:45:00,52.2,40.0,29.93,WSW,248,0.0,0.0,63,0.00,,,0.00,WUHU216HW,2013-04-30 07:45:00,
2013-04-30 03:50:00,52.0,39.8,29.93,WSW,248,0.0,0.0,63,0.00,,,0.00,WUHU216HW,2013-04-30 07:50:00,
2013-04-30 03:55:00,51.8,39.6,29.93,WSW,248,0.0,0.0,63,0.00,,,0.00,WUHU216HW,2013-04-30 07:55:00,
2013-04-30 04:00:00,51.8,39.6,29.94,WSW,248,0.0,0.0,63,0.00,,,0.00,WUHU216HW,2013-04-30 08:00:00,
2013-04-30 04:05:00,51.8,39.6,29.93,WSW,248,0.0,0.0,63,0.00,,,0.00,WUHU216HW,2013-04-30 08:05:00,
2013-04-30 04:11:00,51.7,39.4,29.93,WSW,248,0.0,0.0,63,0.00,,,0.00,WUHU216HW,2013-04-30 08:11:00,
2013-04-30 04:16:00,51.7,39.9,29.93,WSW,248,0.3,0.4,64,0.00,,,0.00,WUHU216HW,2013-04-30 08:16:00,
2013-04-30 04:21:00,51.5,39.7,29.93,WSW,248,0.0,0.4,64,0.00,,,0.00,WUHU216HW,2013-04-30 08:21:00,
2013-04-30 04:26:00,51.5,39.7,29.93,WSW,248,0.0,0.0,64,0.00,,,0.00,WUHU216HW,2013-04-30 08:26:00,
2013-04-30 04:31:00,51.5,39.7,29.94,WSW,248,0.0,0.0,64,0.00,,,0.00,WUHU216HW,2013-04-30 08:31:00,
2013-04-30 04:36:00,51.3,39.5,29.94,WSW,248,0.0,0.0,64,0.00,,,0.00,WUHU216HW,2013-04-30 08:36:00,
2013-04-30 04:41:00,51.1,39.3,29.94,WSW,248,0.0,0.0,64,0.00,,,0.00,WUHU216HW,2013-04-30 08:41:00,
2013-04-30 04:46:00,50.9,39.2,29.94,WSW,248,0.0,0.0,64,0.00,,,0.00,WUHU216HW,2013-04-30 08:46:00,
2013-04-30 04:51:00,50.8,39.0,29.94,NNE,28,0.6,0.7,64,0.00,,,0.00,WUHU216HW,2013-04-30 08:51:00,
2013-04-30 04:56:00,50.6,39.3,29.94,NE,45,0.8,1.1,65,0.00,,,0.00,WUHU216HW,2013-04-30 08:56:00,
2013-04-30 05:01:00,50.2,38.9,29.94,NE,45,0.2,1.1,65,0.00,,,0.00,WUHU216HW,2013-04-30 09:01:00,
2013-04-30 05:06:00,50.0,39.1,29.94,NE,45,0.4,0.9,66,0.00,,,0.00,WUHU216HW,2013-04-30 09:06:00,
2013-04-30 05:12:00,49.7,38.8,29.95,NE,45,0.0,0.9,66,0.00,,,0.00,WUHU216HW,2013-04-30 09:12:00,
2013-04-30 05:17:00,49.5,38.6,29.95,NE,45,0.0,0.7,66,0.00,,,0.00,WUHU216HW,2013-04-30 09:17:00,
2013-04-30 05:22:00,49.3,38.4,29.95,NE,45,0.4,0.4,66,0.00,,,0.00,WUHU216HW,2013-04-30 09:22:00,
2013-04-30 05:27:00,49.0,38.8,29.95,NE,45,0.3,0.4,68,0.00,,,0.00,WUHU216HW,2013-04-30 09:27:00,
2013-04-30 05:32:00,48.6,38.5,29.95,NE,45,0.3,0.4,68,0.00,,,0.00,WUHU216HW,2013-04-30 09:32:00,
2013-04-30 05:37:00,48.4,38.4,29.95,NE,45,0.3,0.7,68,0.00,,,0.00,WUHU216HW,2013-04-30 09:37:00,
2013-04-30 05:42:00,48.2,37.7,29.95,NE,45,0.0,0.7,67,0.00,,,0.00,WUHU216HW,2013-04-30 09:42:00,
2013-04-30 05:47:00,48.1,38.0,29.95,NE,45,0.2,0.4,68,0.00,,,0.00,WUHU216HW,2013-04-30 09:47:00,
2013-04-30 05:52:00,47.9,37.5,29.95,NE,45,0.0,0.4,67,0.00,,,0.00,WUHU216HW,2013-04-30 09:52:00,
2013-04-30 05:57:00,47.7,37.6,29.96,NE,45,0.4,0.4,68,0.00,,,0.00,WUHU216HW,2013-04-30 09:57:00,
2013-04-30 06:02:00,47.7,37.6,29.96,NE,45,0.5,0.7,68,0.00,,,0.00,WUHU216HW,2013-04-30 10:02:00,
2013-04-30 06:07:00,47.5,37.4,29.96,NE,45,0.0,0.7,68,0.00,,,0.00,WUHU216HW,2013-04-30 10:07:00,
2013-04-30 06:12:00,47.3,37.7,29.96,NE,45,0.3,0.4,69,0.00,,,0.00,WUHU216HW,2013-04-30 10:12:00,
2013-04-30 06:17:00,47.3,37.7,29.96,NE,45,0.0,0.4,69,0.00,,,0.00,WUHU216HW,2013-04-30 10:17:00,
2013-04-30 06:22:00,47.5,37.9,29.96,NE,45,0.0,0.0,69,0.00,,,0.00,WUHU216HW,2013-04-30 10:22:00,
2013-04-30 06:27:00,47.3,37.7,29.96,NE,45,0.0,0.0,69,0.00,,,0.00,WUHU216HW,2013-04-30 10:27:00,
2013-04-30 06:33:00,47.5,37.9,29.96,NE,45,0.0,0.0,69,0.00,,,0.00,WUHU216HW,2013-04-30 10:33:00,
2013-04-30 06:38:00,47.7,38.0,29.96,NE,45,0.0,0.0,69,0.00,,,0.00,WUHU216HW,2013-04-30 10:38:00,
2013-04-30 06:43:00,47.9,38.2,29.96,NE,45,0.0,0.0,69,0.00,,,0.00,WUHU216HW,2013-04-30 10:43:00,
2013-04-30 06:48:00,47.9,38.2,29.97,NE,45,0.0,0.0,69,0.00,,,0.00,WUHU216HW,2013-04-30 10:48:00,
2013-04-30 06:53:00,48.1,38.4,29.97,NE,45,0.0,0.0,69,0.00,,,0.00,WUHU216HW,2013-04-30 10:53:00,
2013-04-30 06:58:00,48.1,38.4,29.97,NE,45,0.0,0.0,69,0.00,,,0.00,WUHU216HW,2013-04-30 10:58:00,
2013-04-30 07:03:00,48.2,38.5,29.97,NE,45,0.0,0.0,69,0.00,,,0.00,WUHU216HW,2013-04-30 11:03:00,
2013-04-30 07:08:00,48.4,38.7,29.98,NE,45,0.0,0.0,69,0.00,,,0.00,WUHU216HW,2013-04-30 11:08:00,
2013-04-30 07:13:00,48.6,38.5,29.98,NE,45,0.0,0.0,68,0.00,,,0.00,WUHU216HW,2013-04-30 11:13:00,
2013-04-30 07:18:00,48.6,38.5,29.98,NE,45,0.0,0.0,68,0.00,,,0.00,WUHU216HW,2013-04-30 11:18:00,
2013-04-30 07:23:00,49.0,38.4,29.98,NE,45,0.0,0.0,67,0.00,,,0.00,WUHU216HW,2013-04-30 11:23:00,
2013-04-30 07:28:00,49.3,37.6,29.98,West,270,0.4,0.4,64,0.00,,,0.00,WUHU216HW,2013-04-30 11:28:00,
2013-04-30 07:33:00,49.9,38.2,29.98,SW,225,0.9,0.9,64,0.00,,,0.00,WUHU216HW,2013-04-30 11:33:00,
2013-04-30 07:38:00,50.6,38.4,29.98,SW,225,0.4,0.9,63,0.00,,,0.00,WUHU216HW,2013-04-30 11:38:00,
2013-04-30 07:43:00,51.3,38.3,29.98,WSW,248,0.4,0.7,61,0.00,,,0.00,WUHU216HW,2013-04-30 11:43:00,
2013-04-30 07:49:00,52.0,38.5,29.98,WSW,248,1.1,1.8,60,0.00,,,0.00,WUHU216HW,2013-04-30 11:49:00,
2013-04-30 07:54:00,52.6,38.2,29.98,WSW,248,1.3,1.8,58,0.00,,,0.00,WUHU216HW,2013-04-30 11:54:00,
2013-04-30 07:59:00,53.1,37.7,29.98,WSW,237,0.3,1.6,56,0.00,,,0.00,WUHU216HW,2013-04-30 11:59:00,
2013-04-30 08:04:00,53.6,37.4,29.98,WSW,248,0.9,1.6,54,0.00,,,0.00,WUHU216HW,2013-04-30 12:04:00,
2013-04-30 08:09:00,54.2,36.9,29.98,SW,225,0.7,1.3,52,0.00,,,0.00,WUHU216HW,2013-04-30 12:09:00,
2013-04-30 08:14:00,54.5,37.2,29.98,WSW,248,0.5,2.5,52,0.00,,,0.00,WUHU216HW,2013-04-30 12:14:00,
2013-04-30 08:19:00,54.9,37.1,29.98,SW,233,0.7,2.5,51,0.00,,,0.00,WUHU216HW,2013-04-30 12:19:00,
2013-04-30 08:24:00,55.4,37.1,29.98,SW,225,1.6,1.8,50,0.00,,,0.00,WUHU216HW,2013-04-30 12:24:00,
2013-04-30 08:29:00,55.8,36.4,29.99,SW,225,1.8,1.8,48,0.00,,,0.00,WUHU216HW,2013-04-30 12:29:00,
2013-04-30 08:34:00,56.2,35.6,29.99,SW,217,0.8,2.5,46,0.00,,,0.00,WUHU216HW,2013-04-30 12:34:00,
2013-04-30 08:39:00,56.2,35.6,29.98,WSW,253,0.7,2.5,46,0.00,,,0.00,WUHU216HW,2013-04-30 12:39:00,
2013-04-30 08:44:00,56.5,35.3,29.99,SSW,208,0.7,1.3,45,0.00,,,0.00,WUHU216HW,2013-04-30 12:44:00,
2013-04-30 08:49:00,56.9,35.1,29.99,WSW,245,0.8,1.8,44,0.00,,,0.00,WUHU216HW,2013-04-30 12:49:00,
2013-04-30 08:55:00,57.1,35.3,29.98,SW,223,1.3,2.5,44,0.00,,,0.00,WUHU216HW,2013-04-30 12:55:00,
2013-04-30 09:00:00,57.2,34.8,29.98,WSW,241,1.2,2.5,43,0.00,,,0.00,WUHU216HW,2013-04-30 13:00:00,
2013-04-30 09:05:00,57.6,34.0,29.98,SW,225,1.3,2.0,41,0.00,,,0.00,WUHU216HW,2013-04-30 13:05:00,
2013-04-30 09:10:00,58.3,35.3,29.98,SW,229,0.5,2.9,42,0.00,,,0.00,WUHU216HW,2013-04-30 13:10:00,
2013-04-30 09:15:00,59.0,35.3,29.99,SW,226,1.2,2.9,41,0.00,,,0.00,WUHU216HW,2013-04-30 13:15:00,
2013-04-30 09:20:00,59.9,34.1,29.98,WSW,248,1.6,2.5,38,0.00,,,0.00,WUHU216HW,2013-04-30 13:20:00,
2013-04-30 09:25:00,61.0,36.6,29.98,WSW,248,0.7,2.2,40,0.00,,,0.00,WUHU216HW,2013-04-30 13:25:00,
2013-04-30 09:30:00,62.3,36.2,29.98,SSW,203,0.6,2.0,38,0.00,,,0.00,WUHU216HW,2013-04-30 13:30:00,
2013-04-30 09:35:00,63.4,35.7,29.98,WSW,239,0.8,1.8,36,0.00,,,0.00,WUHU216HW,2013-04-30 13:35:00,
2013-04-30 09:40:00,64.4,35.3,29.98,SW,225,1.1,1.6,34,0.00,,,0.00,WUHU216HW,2013-04-30 13:40:00,
2013-04-30 09:45:00,65.3,35.4,29.98,South,180,0.7,1.8,33,0.00,,,0.00,WUHU216HW,2013-04-30 13:45:00,
2013-04-30 09:50:00,66.1,36.0,29.98,North,0,1.8,1.8,33,0.00,,,0.00,WUHU216HW,2013-04-30 13:50:00,
2013-04-30 09:55:00,66.2,33.0,29.98,North,351,0.4,1.8,29,0.00,,,0.00,WUHU216HW,2013-04-30 13:55:00,
2013-04-30 10:00:00,67.1,34.7,29.98,WSW,240,1.3,1.8,30,0.00,,,0.00,WUHU216HW,2013-04-30 14:00:00,
2013-04-30 10:06:00,67.7,32.2,29.98,WSW,248,1.8,2.5,27,0.00,,,0.00,WUHU216HW,2013-04-30 14:06:00,
2013-04-30 10:10:00,68.4,33.9,29.98,North,357,0.5,2.5,28,0.00,,,0.00,WUHU216HW,2013-04-30 14:10:00,
2013-04-30 10:16:00,68.9,36.3,29.98,WSW,237,1.7,3.8,30,0.00,,,0.00,WUHU216HW,2013-04-30 14:16:00,
2013-04-30 10:21:00,69.5,35.7,29.98,WNW,292,1.3,3.8,29,0.00,,,0.00,WUHU216HW,2013-04-30 14:21:00,
2013-04-30 10:26:00,70.2,36.4,29.98,SSE,158,1.3,2.5,29,0.00,,,0.00,WUHU216HW,2013-04-30 14:26:00,
2013-04-30 10:31:00,70.9,36.0,29.98,SW,225,3.1,3.1,28,0.00,,,0.00,WUHU216HW,2013-04-30 14:31:00,
2013-04-30 10:36:00,71.3,37.4,29.98,SW,225,2.2,3.1,29,0.00,,,0.00,WUHU216HW,2013-04-30 14:36:00,
2013-04-30 10:41:00,71.6,36.6,29.98,SW,225,1.3,3.1,28,0.00,,,0.00,WUHU216HW,2013-04-30 14:41:00,
2013-04-30 10:46:00,72.2,37.1,29.98,SW,225,1.1,2.7,28,0.00,,,0.00,WUHU216HW,2013-04-30 14:46:00,
2013-04-30 10:51:00,72.7,35.5,29.98,West,271,0.6,4.7,26,0.00,,,0.00,WUHU216HW,2013-04-30 14:51:00,
2013-04-30 10:56:00,72.9,37.7,29.98,WSW,248,1.8,4.7,28,0.00,,,0.00,WUHU216HW,2013-04-30 14:56:00,
2013-04-30 11:01:00,73.6,39.3,29.98,SW,220,1.9,3.6,29,0.00,,,0.00,WUHU216HW,2013-04-30 15:01:00,
2013-04-30 11:06:00,73.8,36.5,29.97,North,351,0.9,3.6,26,0.00,,,0.00,WUHU216HW,2013-04-30 15:06:00,
2013-04-30 11:11:00,74.2,39.8,29.97,SSW,203,1.8,5.4,29,0.00,,,0.00,WUHU216HW,2013-04-30 15:11:00,
2013-04-30 11:16:00,74.5,40.1,29.97,WSW,239,2.0,5.4,29,0.00,,,0.00,WUHU216HW,2013-04-30 15:16:00,
2013-04-30 11:21:00,74.9,39.4,29.97,SW,228,2.8,4.9,28,0.00,,,0.00,WUHU216HW,2013-04-30 15:21:00,
2013-04-30 11:26:00,75.4,39.9,29.96,SSW,203,2.0,4.9,28,0.00,,,0.00,WUHU216HW,2013-04-30 15:26:00,
2013-04-30 11:31:00,76.1,37.4,29.97,NNE,23,0.7,4.0,25,0.00,,,0.00,WUHU216HW,2013-04-30 15:31:00,
2013-04-30 11:36:00,76.0,40.3,29.96,SSW,209,1.4,2.9,28,0.00,,,0.00,WUHU216HW,2013-04-30 15:36:00,
2013-04-30 11:41:00,76.7,42.0,29.96,WSW,251,1.5,3.6,29,0.00,,,0.00,WUHU216HW,2013-04-30 15:41:00,
2013-04-30 11:46:00,77.0,41.3,29.96,WSW,255,2.0,3.6,28,0.00,,,0.00,WUHU216HW,2013-04-30 15:46:00,
2013-04-30 11:51:00,77.0,40.2,29.96,SSW,203,1.8,3.6,27,0.00,,,0.00,WUHU216HW,2013-04-30 15:51:00,
2013-04-30 11:57:00,77.0,41.3,29.96,WSW,248,1.6,4.7,28,0.00,,,0.00,WUHU216HW,2013-04-30 15:57:00,
2013-04-30 12:02:00,77.4,37.5,29.96,ENE,57,1.4,4.7,24,0.00,,,0.00,WUHU216HW,2013-04-30 16:02:00,
2013-04-30 12:07:00,77.4,39.5,29.95,WSW,237,2.9,5.1,26,0.00,,,0.00,WUHU216HW,2013-04-30 16:07:00,
2013-04-30 12:12:00,77.4,38.4,29.95,SSW,203,4.0,5.1,25,0.00,,,0.00,WUHU216HW,2013-04-30 16:12:00,
2013-04-30 12:17:00,77.6,39.6,29.95,WSW,248,2.0,4.0,26,0.00,,,0.00,WUHU216HW,2013-04-30 16:17:00,
2013-04-30 12:22:00,78.1,40.1,29.95,WSW,245,2.0,4.7,26,0.00,,,0.00,WUHU216HW,2013-04-30 16:22:00,
2013-04-30 12:27:00,78.5,40.3,29.95,SW,231,1.3,4.7,26,0.00,,,0.00,WUHU216HW,2013-04-30 16:27:00,
2013-04-30 12:32:00,78.8,40.7,29.95,WSW,248,4.7,4.7,26,0.00,,,0.00,WUHU216HW,2013-04-30 16:32:00,
2013-04-30 12:37:00,78.8,39.6,29.95,NW,315,2.2,4.7,25,0.00,,,0.00,WUHU216HW,2013-04-30 16:37:00,
2013-04-30 12:42:00,78.8,40.7,29.95,WSW,248,1.8,4.7,26,0.00,,,0.00,WUHU216HW,2013-04-30 16:42:00,
2013-04-30 12:47:00,78.5,39.3,29.95,WSW,248,3.6,3.6,25,0.00,,,0.00,WUHU216HW,2013-04-30 16:47:00,
2013-04-30 12:52:00,78.3,39.2,29.95,SSW,203,2.0,4.7,25,0.00,,,0.00,WUHU216HW,2013-04-30 16:52:00,
2013-04-30 12:57:00,78.1,40.1,29.95,WSW,248,5.1,5.1,26,0.00,,,0.00,WUHU216HW,2013-04-30 16:57:00,
2013-04-30 13:02:00,77.9,38.9,29.95,SSW,203,4.7,5.1,25,0.00,,,0.00,WUHU216HW,2013-04-30 17:02:00,
2013-04-30 13:07:00,77.8,39.8,29.95,SW,232,4.1,5.4,26,0.00,,,0.00,WUHU216HW,2013-04-30 17:07:00,
2013-04-30 13:13:00,78.5,40.3,29.95,ESE,113,0.7,5.4,26,0.00,,,0.00,WUHU216HW,2013-04-30 17:13:00,
2013-04-30 13:18:00,78.7,39.4,29.95,South,180,5.4,5.4,25,0.00,,,0.00,WUHU216HW,2013-04-30 17:18:00,
2013-04-30 13:23:00,79.2,40.0,29.95,East,90,1.6,5.4,25,0.00,,,0.00,WUHU216HW,2013-04-30 17:23:00,
2013-04-30 13:28:00,79.4,40.1,29.95,SW,225,2.5,3.6,25,0.00,,,0.00,WUHU216HW,2013-04-30 17:28:00,
2013-04-30 13:33:00,79.4,38.0,29.95,South,189,2.3,3.6,23,0.00,,,0.00,WUHU216HW,2013-04-30 17:33:00,
2013-04-30 13:38:00,79.4,40.1,29.95,ENE,61,1.4,4.3,25,0.00,,,0.00,WUHU216HW,2013-04-30 17:38:00,
2013-04-30 13:43:00,79.4,40.1,29.95,SW,217,1.1,5.4,25,0.00,,,0.00,WUHU216HW,2013-04-30 17:43:00,
2013-04-30 13:48:00,79.4,40.1,29.95,South,190,1.2,5.4,25,0.00,,,0.00,WUHU216HW,2013-04-30 17:48:00,
2013-04-30 13:53:00,79.7,39.3,29.95,SW,234,1.6,4.0,24,0.00,,,0.00,WUHU216HW,2013-04-30 17:53:00,
2013-04-30 13:58:00,79.6,37.1,29.95,WSW,258,3.3,4.7,22,0.00,,,0.00,WUHU216HW,2013-04-30 17:58:00,
2013-04-30 14:03:00,79.0,39.8,29.95,WSW,240,2.0,4.7,25,0.00,,,0.00,WUHU216HW,2013-04-30 18:03:00,
2013-04-30 14:08:00,78.7,38.4,29.95,WSW,248,3.1,6.7,24,0.00,,,0.00,WUHU216HW,2013-04-30 18:08:00,
2013-04-30 14:13:00,78.1,39.1,29.95,WSW,248,3.3,6.7,25,0.00,,,0.00,WUHU216HW,2013-04-30 18:13:00,
2013-04-30 14:19:00,77.9,38.9,29.95,SW,225,3.6,4.0,25,0.00,,,0.00,WUHU216HW,2013-04-30 18:19:00,
2013-04-30 14:24:00,77.6,38.6,29.95,WSW,238,3.9,5.6,25,0.00,,,0.00,WUHU216HW,2013-04-30 18:24:00,
2013-04-30 14:29:00,77.8,37.7,29.95,SSW,203,2.2,5.6,24,0.00,,,0.00,WUHU216HW,2013-04-30 18:29:00,
2013-04-30 14:34:00,77.9,37.8,29.95,SW,217,4.4,6.7,24,0.00,,,0.00,WUHU216HW,2013-04-30 18:34:00,
2013-04-30 14:39:00,77.9,37.8,29.95,WSW,248,1.8,6.7,24,0.00,,,0.00,WUHU216HW,2013-04-30 18:39:00,
2013-04-30 14:44:00,77.4,36.4,29.94,NE,39,2.3,6.3,23,0.00,,,0.00,WUHU216HW,2013-04-30 18:44:00,
2013-04-30 14:49:00,76.7,36.8,29.94,SW,225,3.6,6.3,24,0.00,,,0.00,WUHU216HW,2013-04-30 18:49:00,
2013-04-30 14:54:00,76.3,35.5,29.94,NNE,29,4.1,5.4,23,0.00,,,0.00,WUHU216HW,2013-04-30 18:54:00,
2013-04-30 14:59:00,75.6,35.9,29.94,West,270,6.9,6.9,24,0.00,,,0.00,WUHU216HW,2013-04-30 18:59:00,
2013-04-30 15:04:00,75.6,35.9,29.94,WSW,248,2.9,6.9,24,0.00,,,0.00,WUHU216HW,2013-04-30 19:04:00,
2013-04-30 15:09:00,75.6,35.9,29.94,WSW,248,4.0,6.9,24,0.00,,,0.00,WUHU216HW,2013-04-30 19:09:00,
2013-04-30 15:14:00,75.4,36.8,29.94,WSW,251,1.0,4.9,25,0.00,,,0.00,WUHU216HW,2013-04-30 19:14:00,
2013-04-30 15:19:00,75.2,37.6,29.94,SW,234,2.9,4.9,26,0.00,,,0.00,WUHU216HW,2013-04-30 19:19:00,
2013-04-30 15:24:00,75.1,36.5,29.94,SW,223,2.9,6.3,25,0.00,,,0.00,WUHU216HW,2013-04-30 19:24:00,
2013-04-30 15:29:00,74.9,36.4,29.94,WSW,238,1.5,6.3,25,0.00,,,0.00,WUHU216HW,2013-04-30 19:29:00,
2013-04-30 15:34:00,74.7,37.2,29.94,SW,225,4.0,4.5,26,0.00,,,0.00,WUHU216HW,2013-04-30 19:34:00,
2013-04-30 15:40:00,74.5,37.1,29.95,West,270,4.5,5.4,26,0.00,,,0.00,WUHU216HW,2013-04-30 19:40:00,
2013-04-30 15:45:00,74.2,36.7,29.94,WSW,248,0.7,5.4,26,0.00,,,0.00,WUHU216HW,2013-04-30 19:45:00,
2013-04-30 15:50:00,74.0,35.6,29.94,ESE,113,1.1,4.5,25,0.00,,,0.00,WUHU216HW,2013-04-30 19:50:00,
2013-04-30 15:55:00,73.8,35.4,29.95,SSE,153,1.7,5.1,25,0.00,,,0.00,WUHU216HW,2013-04-30 19:55:00,
2013-04-30 16:00:00,73.6,35.3,29.95,West,263,1.3,5.1,25,0.00,,,0.00,WUHU216HW,2013-04-30 20:00:00,
2013-04-30 16:05:00,73.6,35.3,29.95,South,189,2.8,3.8,25,0.00,,,0.00,WUHU216HW,2013-04-30 20:05:00,
2013-04-30 16:10:00,73.4,36.1,29.95,WSW,255,3.1,5.6,26,0.00,,,0.00,WUHU216HW,2013-04-30 20:10:00,
2013-04-30 16:15:00,73.1,34.8,29.95,NE,45,1.1,5.6,25,0.00,,,0.00,WUHU216HW,2013-04-30 20:15:00,
2013-04-30 16:20:00,72.9,34.7,29.95,NE,46,2.1,4.3,25,0.00,,,0.00,WUHU216HW,2013-04-30 20:20:00,
2013-04-30 16:25:00,72.7,35.5,29.95,WSW,248,2.2,4.3,26,0.00,,,0.00,WUHU216HW,2013-04-30 20:25:00,
2013-04-30 16:30:00,72.7,35.5,29.95,WSW,255,5.3,7.6,26,0.00,,,0.00,WUHU216HW,2013-04-30 20:30:00,
2013-04-30 16:35:00,72.4,34.2,29.95,WSW,248,4.5,7.6,25,0.00,,,0.00,WUHU216HW,2013-04-30 20:35:00,
2013-04-30 16:40:00,72.2,34.0,29.95,NE,45,1.1,6.0,25,0.00,,,0.00,WUHU216HW,2013-04-30 20:40:00,
2013-04-30 16:45:00,72.0,33.8,29.95,NNE,23,1.6,4.9,25,0.00,,,0.00,WUHU216HW,2013-04-30 20:45:00,
2013-04-30 16:51:00,72.0,32.9,29.95,NE,45,5.4,5.4,24,0.00,,,0.00,WUHU216HW,2013-04-30 20:51:00,
2013-04-30 16:56:00,72.0,34.9,29.95,WSW,248,1.8,5.4,26,0.00,,,0.00,WUHU216HW,2013-04-30 20:56:00,
2013-04-30 17:01:00,72.0,34.9,29.95,West,270,2.5,5.4,26,0.00,,,0.00,WUHU216HW,2013-04-30 21:01:00,
2013-04-30 17:06:00,71.6,33.6,29.95,ENE,61,0.5,4.7,25,0.00,,,0.00,WUHU216HW,2013-04-30 21:06:00,
2013-04-30 17:11:00,71.6,33.6,29.95,West,259,2.8,4.7,25,0.00,,,0.00,WUHU216HW,2013-04-30 21:11:00,
2013-04-30 17:16:00,71.5,33.4,29.95,SSE,158,1.1,4.0,25,0.00,,,0.00,WUHU216HW,2013-04-30 21:16:00,
2013-04-30 17:21:00,71.3,33.3,29.95,West,270,2.5,2.5,25,0.00,,,0.00,WUHU216HW,2013-04-30 21:21:00,
2013-04-30 17:26:00,71.1,33.1,29.95,WSW,256,2.3,6.9,25,0.00,,,0.00,WUHU216HW,2013-04-30 21:26:00,
2013-04-30 17:31:00,70.9,32.9,29.95,SW,225,3.4,6.9,25,0.00,,,0.00,WUHU216HW,2013-04-30 21:31:00,
2013-04-30 17:36:00,70.9,32.9,29.95,WSW,249,6.2,6.3,25,0.00,,,0.00,WUHU216HW,2013-04-30 21:36:00,
2013-04-30 17:41:00,70.7,32.8,29.95,WSW,248,2.0,6.3,25,0.00,,,0.00,WUHU216HW,2013-04-30 21:41:00,
2013-04-30 17:46:00,70.6,32.7,29.95,SSE,160,1.6,4.0,25,0.00,,,0.00,WUHU216HW,2013-04-30 21:46:00,
2013-04-30 17:51:00,70.4,32.5,29.95,South,179,1.0,4.0,25,0.00,,,0.00,WUHU216HW,2013-04-30 21:51:00,
2013-04-30 17:56:00,70.4,33.5,29.95,ESE,119,0.5,1.6,26,0.00,,,0.00,WUHU216HW,2013-04-30 21:56:00,
2013-04-30 18:01:00,70.2,33.4,29.96,WSW,248,1.8,2.5,26,0.00,,,0.00,WUHU216HW,2013-04-30 22:01:00,
2013-04-30 18:06:00,70.0,33.2,29.96,ESE,122,1.2,2.5,26,0.00,,,0.00,WUHU216HW,2013-04-30 22:06:00,
2013-04-30 18:11:00,69.8,33.0,29.96,NNE,16,1.5,2.0,26,0.00,,,0.00,WUHU216HW,2013-04-30 22:11:00,
2013-04-30 18:16:00,69.5,33.8,29.96,SSW,201,3.0,5.4,27,0.00,,,0.00,WUHU216HW,2013-04-30 22:16:00,
2013-04-30 18:21:00,69.1,34.5,29.96,North,0,3.1,5.4,28,0.00,,,0.00,WUHU216HW,2013-04-30 22:21:00,
2013-04-30 18:26:00,68.8,35.1,29.96,East,90,0.9,5.4,29,0.00,,,0.00,WUHU216HW,2013-04-30 22:26:00,
2013-04-30 18:31:00,68.6,33.9,29.97,NE,45,2.7,3.1,28,0.00,,,0.00,WUHU216HW,2013-04-30 22:31:00,
2013-04-30 18:37:00,68.0,34.5,29.97,West,270,1.8,2.7,29,0.00,,,0.00,WUHU216HW,2013-04-30 22:37:00,
2013-04-30 18:42:00,67.9,34.3,29.97,NNE,23,2.0,2.7,29,0.00,,,0.00,WUHU216HW,2013-04-30 22:42:00,
2013-04-30 18:47:00,67.3,34.9,29.97,NNE,23,3.4,3.4,30,0.00,,,0.00,WUHU216HW,2013-04-30 22:47:00,
2013-04-30 18:52:00,67.1,34.7,29.97,NNE,23,1.1,3.4,30,0.00,,,0.00,WUHU216HW,2013-04-30 22:52:00,
2013-04-30 18:57:00,66.6,34.3,29.97,ESE,113,1.3,3.4,30,0.00,,,0.00,WUHU216HW,2013-04-30 22:57:00,
2013-04-30 19:02:00,66.2,34.7,29.97,NNE,23,2.0,2.0,31,0.00,,,0.00,WUHU216HW,2013-04-30 23:02:00,
2013-04-30 19:07:00,65.9,34.4,29.98,ENE,59,1.3,2.0,31,0.00,,,0.00,WUHU216HW,2013-04-30 23:07:00,
2013-04-30 19:12:00,65.5,33.4,29.98,ENE,61,1.0,2.0,30,0.00,,,0.00,WUHU216HW,2013-04-30 23:12:00,
2013-04-30 19:17:00,65.2,33.0,29.98,WSW,248,1.1,1.8,30,0.00,,,0.00,WUHU216HW,2013-04-30 23:17:00,
2013-04-30 19:22:00,64.6,33.3,29.98,ENE,68,0.4,1.6,31,0.00,,,0.00,WUHU216HW,2013-04-30 23:22:00,
2013-04-30 19:27:00,64.3,32.9,29.98,NE,50,1.8,2.5,31,0.00,,,0.00,WUHU216HW,2013-04-30 23:27:00,
2013-04-30 19:32:00,63.9,33.4,29.99,North,4,0.9,5.1,32,0.00,,,0.00,WUHU216HW,2013-04-30 23:32:00,
2013-04-30 19:37:00,63.5,33.0,29.99,NNE,23,1.6,5.1,32,0.00,,,0.00,WUHU216HW,2013-04-30 23:37:00,
2013-04-30 19:42:00,63.2,32.7,29.99,WSW,248,1.8,3.1,32,0.00,,,0.00,WUHU216HW,2013-04-30 23:42:00,
2013-04-30 19:47:00,63.0,32.6,29.99,NNE,23,5.4,5.4,32,0.00,,,0.00,WUHU216HW,2013-04-30 23:47:00,
2013-04-30 19:52:00,62.6,32.2,29.99,North,0,0.7,5.4,32,0.00,,,0.00,WUHU216HW,2013-04-30 23:52:00,
2013-04-30 19:57:00,62.3,32.6,29.99,North,0,1.1,5.4,33,0.00,,,0.00,WUHU216HW,2013-04-30 23:57:00,
2013-04-30 20:02:00,61.9,32.3,30.00,NNW,338,0.6,2.5,33,0.00,,,0.00,WUHU216HW,2013-05-01 00:02:00,
2013-04-30 20:08:00,61.6,32.7,30.00,NNE,23,1.3,1.6,34,0.00,,,0.00,WUHU216HW,2013-05-01 00:08:00,
2013-04-30 20:13:00,61.2,32.4,30.00,NNE,23,0.6,1.3,34,0.00,,,0.00,WUHU216HW,2013-05-01 00:13:00,
2013-04-30 20:18:00,60.8,32.0,30.00,NNE,23,0.3,1.3,34,0.00,,,0.00,WUHU216HW,2013-05-01 00:18:00,
2013-04-30 20:23:00,60.3,32.3,30.00,North,7,0.4,1.6,35,0.00,,,0.00,WUHU216HW,2013-05-01 00:23:00,
2013-04-30 20:28:00,60.1,32.1,30.01,NNE,23,1.1,2.0,35,0.00,,,0.00,WUHU216HW,2013-05-01 00:28:00,
2013-04-30 20:33:00,59.8,32.6,30.00,NNE,23,0.3,2.0,36,0.00,,,0.00,WUHU216HW,2013-05-01 00:33:00,
2013-04-30 20:38:00,59.4,32.2,30.00,NNE,23,0.6,1.6,36,0.00,,,0.00,WUHU216HW,2013-05-01 00:38:00,
2013-04-30 20:43:00,59.2,32.8,30.00,NNE,23,0.4,1.1,37,0.00,,,0.00,WUHU216HW,2013-05-01 00:43:00,
2013-04-30 20:48:00,58.9,31.8,30.01,NNE,23,0.3,0.9,36,0.00,,,0.00,WUHU216HW,2013-05-01 00:48:00,
2013-04-30 20:53:00,58.7,32.3,30.01,NNE,23,0.5,1.1,37,0.00,,,0.00,WUHU216HW,2013-05-01 00:53:00,
2013-04-30 20:58:00,58.3,32.0,30.01,NNE,23,0.3,1.1,37,0.00,,,0.00,WUHU216HW,2013-05-01 00:58:00,
2013-04-30 21:03:00,58.0,31.7,30.01,ENE,68,0.0,0.4,37,0.00,,,0.00,WUHU216HW,2013-05-01 01:03:00,
2013-04-30 21:08:00,57.8,32.2,30.02,ENE,68,0.2,0.4,38,0.00,,,0.00,WUHU216HW,2013-05-01 01:08:00,
2013-04-30 21:13:00,57.4,31.9,30.02,ENE,68,0.0,0.2,38,0.00,,,0.00,WUHU216HW,2013-05-01 01:13:00,
2013-04-30 21:18:00,57.1,31.6,30.02,ENE,68,0.2,0.2,38,0.00,,,0.00,WUHU216HW,2013-05-01 01:18:00,
2013-04-30 21:23:00,56.7,32.0,30.02,ENE,68,0.4,0.4,39,0.00,,,0.00,WUHU216HW,2013-05-01 01:23:00,
2013-04-30 21:28:00,56.5,31.8,30.02,ENE,68,0.2,0.7,39,0.00,,,0.00,WUHU216HW,2013-05-01 01:28:00,
2013-04-30 21:33:00,56.2,31.4,30.02,ENE,68,0.3,0.7,39,0.00,,,0.00,WUHU216HW,2013-05-01 01:33:00,
2013-04-30 21:38:00,55.8,31.2,30.02,ENE,68,0.4,0.4,39,0.00,,,0.00,WUHU216HW,2013-05-01 01:38:00,
2013-04-30 21:44:00,55.8,31.2,30.02,North,0,0.2,0.7,39,0.00,,,0.00,WUHU216HW,2013-05-01 01:44:00,
2013-04-30 21:49:00,55.6,31.0,30.02,North,0,0.2,0.9,39,0.00,,,0.00,WUHU216HW,2013-05-01 01:49:00,
2013-04-30 21:54:00,55.4,30.8,30.02,North,0,0.0,0.9,39,0.00,,,0.00,WUHU216HW,2013-05-01 01:54:00,
2013-04-30 21:59:00,55.3,30.6,30.03,NNW,338,0.0,0.2,39,0.00,,,0.00,WUHU216HW,2013-05-01 01:59:00,
2013-04-30 22:04:00,54.9,31.1,30.03,NNW,338,0.4,0.4,40,0.00,,,0.00,WUHU216HW,2013-05-01 02:04:00,
2013-04-30 22:09:00,54.7,30.9,30.03,North,354,0.3,0.4,40,0.00,,,0.00,WUHU216HW,2013-05-01 02:09:00,
2013-04-30 22:14:00,54.5,30.7,30.03,WNW,293,0.0,0.4,40,0.00,,,0.00,WUHU216HW,2013-05-01 02:14:00,
2013-04-30 22:19:00,54.2,31.0,30.03,NNE,23,0.4,1.8,41,0.00,,,0.00,WUHU216HW,2013-05-01 02:19:00,
2013-04-30 22:24:00,54.0,31.3,30.04,NNE,23,0.0,1.8,42,0.00,,,0.00,WUHU216HW,2013-05-01 02:24:00,
2013-04-30 22:29:00,53.8,31.1,30.04,NNE,23,0.5,0.9,42,0.00,,,0.00,WUHU216HW,2013-05-01 02:29:00,
2013-04-30 22:34:00,53.6,31.0,30.04,NNE,23,0.4,1.1,42,0.00,,,0.00,WUHU216HW,2013-05-01 02:34:00,
2013-04-30 22:39:00,53.5,30.9,30.04,NNE,23,0.6,1.1,42,0.00,,,0.00,WUHU216HW,2013-05-01 02:39:00,
2013-04-30 22:45:00,53.1,31.1,30.04,NNE,23,0.6,0.7,43,0.00,,,0.00,WUHU216HW,2013-05-01 02:45:00,
2013-04-30 22:50:00,52.7,31.3,30.05,NNE,23,0.4,0.7,44,0.00,,,0.00,WUHU216HW,2013-05-01 02:50:00,
2013-04-30 22:55:00,52.6,31.1,30.05,NNE,23,0.0,0.7,44,0.00,,,0.00,WUHU216HW,2013-05-01 02:55:00,
2013-04-30 23:00:00,52.2,30.2,30.05,NNE,23,0.4,0.7,43,0.00,,,0.00,WUHU216HW,2013-05-01 03:00:00,
2013-04-30 23:05:00,52.0,30.1,30.05,NNE,23,0.4,0.4,43,0.00,,,0.00,WUHU216HW,2013-05-01 03:05:00,
2013-04-30 23:10:00,51.7,30.3,30.05,NNE,23,0.4,1.3,44,0.00,,,0.00,WUHU216HW,2013-05-01 03:10:00,
2013-04-30 23:15:00,51.5,30.2,30.05,NNE,23,0.0,1.3,44,0.00,,,0.00,WUHU216HW,2013-05-01 03:15:00,
2013-04-30 23:20:00,51.1,30.4,30.05,NNE,23,1.0,1.6,45,0.00,,,0.00,WUHU216HW,2013-05-01 03:20:00,
2013-04-30 23:25:00,50.9,30.2,30.05,NNE,23,0.3,1.6,45,0.00,,,0.00,WUHU216HW,2013-05-01 03:25:00,
2013-04-30 23:30:00,50.6,30.5,30.05,NNE,23,0.4,0.9,46,0.00,,,0.00,WUHU216HW,2013-05-01 03:30:00,
2013-04-30 23:35:00,50.2,30.2,30.05,NNE,23,0.0,0.9,46,0.00,,,0.00,WUHU216HW,2013-05-01 03:35:00,
2013-04-30 23:40:00,50.0,30.0,30.05,North,0,0.0,0.2,46,0.00,,,0.00,WUHU216HW,2013-05-01 03:40:00,
2013-04-30 23:45:00,49.7,29.6,30.05,North,0,0.0,0.2,46,0.00,,,0.00,WUHU216HW,2013-05-01 03:45:00,
2013-04-30 23:51:00,49.3,30.4,30.05,North,0,0.0,0.0,48,0.00,,,0.00,WUHU216HW,2013-05-01 03:51:00,
2013-04-30 23:56:00,49.1,30.3,30.06,North,0,0.0,0.0,48,0.00,,,0.00,WUHU216HW,2013-05-01 03:56:00,